Thermal, CA

3:14 AM PDT on August 17, 2017 (GMT -0700)
Desert Resorts Regional

Weather History for KTRM - October, 2013

Change the Weather History Date:

Wednesday, October 23, 2013

  Actual Average Record
Temperature  
Mean Temperature 72 °F 70 °F  
Max Temperature 94 °F 88 °F 105 °F (1959)
Min Temperature 49 °F 52 °F 33 °F (1996)
Degree Days  
Heating Degree Days 0 1  
Month to date heating degree days 5 1  
Since 1 July heating degree days 5 1  
Cooling Degree Days 7 6  
Month to date cooling degree days 125 217  
Year to date cooling degree days 4021 3615  
Growing Degree Days 22 (Base 50)    
Moisture  
Dew Point 37 °F    
Average Humidity 34    
Maximum Humidity 59    
Minimum Humidity 9    
Precipitation  
Precipitation 0.00 in 0.01 in 0.19 in (1992)
Month to date precipitation T 0.17  
Year to date precipitation 1.83 2.56  
Since 1 July precipitation 1.39  
Snow  
Snow 0.00 in - - ()
Month to date snowfall 0.0  
Year to date snowfall 0.0  
Snow Depth 0.00 in    
Sea Level Pressure  
Sea Level Pressure 29.80 in    
Wind  
Wind Speed 4 mph (NNW)    
Max Wind Speed 12 mph    
Max Gust Speed 16 mph    
Visibility 10 miles    
Events      
T = Trace of Precipitation, MM = Missing Value Source: NWS Daily Summary

Daily Weather History Graph

Daily Weather History Graph

Search for Another Location

Airport or City:

Trip Planner

Search our weather history database for the weather conditions in past years. The results will help you decide how hot, cold, wet, or windy it might be!

Date:

Astronomy

Oct. 23, 2013 Rise Set
Actual Time 6:56 AM PDT 6:01 PM PDT
Civil Twilight 6:30 AM PDT 6:26 PM PDT
Nautical Twilight 6:01 AM PDT 6:55 PM PDT
Astronomical Twilight 5:32 AM PDT 7:24 PM PDT
Moon 9:43 PM PDT (10/23) 11:09 AM PDT (10/23)
Length of Visible Light 11h 55m
Length of Day
11h 05m
Waning Gibbous, 78% of the Moon is Illuminated
Oct 23
Waning Gibbous
Oct 26
Last Quarter
Nov 3
New
Nov 9
First Quarter
Nov 17
Full

Hourly Weather History & Observations

Time (PDT) Temp. Dew Point Humidity Pressure Visibility Wind Dir Wind Speed Gust Speed Precip Events Conditions
12:52 AM 57.0 °F 37.9 °F 49% 29.83 in 10.0 mi NW 3.5 mph - N/A   Clear
1:52 AM 55.0 °F 39.0 °F 55% 29.83 in 10.0 mi North 3.5 mph - N/A   Clear
2:52 AM 62.1 °F 32.0 °F 32% 29.82 in 10.0 mi North 5.8 mph - N/A   Clear
3:52 AM 52.0 °F 37.0 °F 57% 29.82 in 10.0 mi NNW 3.5 mph - N/A   Clear
4:52 AM 50.0 °F 35.1 °F 57% 29.81 in 10.0 mi Calm Calm - N/A   Clear
5:52 AM 50.0 °F 36.0 °F 59% 29.82 in 10.0 mi North 3.5 mph - N/A   Clear
6:52 AM 52.0 °F 33.1 °F 49% 29.82 in 10.0 mi Calm Calm - N/A   Clear
7:52 AM 55.9 °F 37.9 °F 51% 29.83 in 10.0 mi Calm Calm - N/A   Clear
8:52 AM 72.0 °F 35.1 °F 26% 29.83 in 10.0 mi NNW 4.6 mph - N/A   Clear
9:52 AM 80.1 °F 33.1 °F 18% 29.83 in 10.0 mi NW 4.6 mph - N/A   Clear
10:52 AM 84.0 °F 32.0 °F 15% 29.83 in 10.0 mi Calm Calm - N/A   Clear
11:52 AM 89.1 °F 30.9 °F 12% 29.81 in 10.0 mi Calm Calm - N/A   Clear
12:52 PM 91.0 °F 30.0 °F 11% 29.79 in 10.0 mi Variable 3.5 mph - N/A   Clear
1:52 PM 93.0 °F 27.0 °F 9% 29.77 in 10.0 mi South 8.1 mph - N/A   Clear
2:52 PM 91.9 °F 34.0 °F 13% 29.76 in 10.0 mi ESE 8.1 mph - N/A   Clear
3:52 PM 89.1 °F 33.1 °F 14% 29.75 in 10.0 mi SE 6.9 mph - N/A   Clear
4:52 PM 87.1 °F 30.9 °F 13% 29.75 in 10.0 mi SE 5.8 mph - N/A   Clear
5:52 PM 79.0 °F 36.0 °F 21% 29.75 in 10.0 mi South 4.6 mph - N/A   Clear
6:52 PM 69.1 °F 39.0 °F 33% 29.75 in 10.0 mi SSE 4.6 mph - N/A   Clear
7:52 PM 69.1 °F 41.0 °F 36% 29.77 in 10.0 mi NNW 6.9 mph - N/A   Clear
8:52 PM 73.0 °F 46.9 °F 39% 29.78 in 9.0 mi NW 8.1 mph - N/A   Clear
9:52 PM 73.0 °F 50.0 °F 44% 29.79 in 7.0 mi NNW 6.9 mph - N/A   Clear
10:52 PM 71.1 °F 51.1 °F 49% 29.83 in 6.0 mi North 6.9 mph - N/A   Haze
11:52 PM 69.1 °F 51.1 °F 53% 29.81 in 6.0 mi NW 5.8 mph - N/A   Haze